Flag for Germany Weather past 2 weeks in Freiberg, Saxony, Germany

Now
55 °F

Broken clouds.


Feels Like: 53 °F
Forecast: 36 / 46 °F
Wind: 8 mph from Southwest

Location: Dresden-Klotzsche

Current Time: Oct 21, 2014 at 11:17:30 AM

Latest Report: Oct 21, 2014 at 10:50 AM


Visibility: N/A

Pressure: 29.83 "Hg

Humidity: 77%

Dew point: 48 °F

Location of FreibergLocation

Historic Weather in Freiberg — Graph

°F

Freiberg temperature yesterday

Maximum temperature yesterday: 64 °F (at 12:20 AM)
Minimum temperature yesterday: 54 °F (at 11:50 PM)
Average temperature yesterday: 59 °F

Past Weeks' High & Low Weather Summary

 TemperatureHumidityPressure
High70 °F (Oct 19, 2:50 PM)100% (Oct 10, 8:20 AM)30.24 "Hg (Oct 10, 8:20 AM)
Low48 °F (Oct 16, 5:50 AM)59% (Oct 20, 2:20 PM)29.71 "Hg (Oct 15, 2:20 PM)
Average58 °F84%29.90 "Hg
* Reported Oct 6 10:20 AM — Oct 21 10:20 AM, Freiberg, Weather by CustomWeather, © 2014

Note: Actual official high and low records may vary slightly from our data, if they occured in-between our weather recording intervals... More about our weather records

Advertising

Freiberg weather history for previous 24 hours

 ConditionsComfort  
Time TempWeatherWind HumidityBarometerVisibility
10:20 AM
Oct 21
54 °FSunny.9 mph77%29.83 "Hg10 mi
9:50 AM54 °FPartly sunny.10 mph82%29.83 "HgN/A
9:20 AM54 °FBroken clouds.8 mph77%29.83 "HgN/A
8:50 AM52 °FBroken clouds.8 mph82%29.83 "HgN/A
8:20 AM52 °FPassing clouds.5 mph88%29.83 "HgN/A
7:50 AM52 °FPartly cloudy.6 mph88%29.83 "HgN/A
7:20 AM52 °FClear.7 mph82%29.83 "Hg10 mi
6:50 AM52 °FPassing clouds.7 mph82%29.86 "HgN/A
6:20 AM52 °FPassing clouds.6 mph82%29.86 "HgN/A
5:50 AM52 °FPassing clouds.6 mph82%29.86 "HgN/A
5:20 AM52 °FClear.6 mph82%29.86 "Hg10 mi
4:50 AM52 °FClear.7 mph82%29.86 "Hg10 mi
4:20 AM54 °FPassing clouds.7 mph77%29.89 "HgN/A
3:50 AM54 °FPassing clouds.7 mph77%29.89 "HgN/A
3:20 AM54 °FPassing clouds.8 mph77%29.89 "HgN/A
2:50 AM54 °FPartly cloudy.7 mph77%29.89 "HgN/A
2:20 AM54 °FPassing clouds.7 mph77%29.89 "HgN/A
1:50 AM54 °FPassing clouds.7 mph77%29.89 "HgN/A
1:20 AM54 °FPartly cloudy.7 mph77%29.89 "HgN/A
12:50 AM54 °FPassing clouds.7 mph77%29.92 "HgN/A
12:20 AM54 °FPassing clouds.6 mph77%29.92 "HgN/A
11:50 PM
Oct 20
54 °FClear.7 mph77%29.92 "Hg10 mi
11:20 PM55 °FClear.5 mph72%29.92 "Hg10 mi
10:50 PM55 °FPassing clouds.6 mph72%29.92 "HgN/A
10:20 PM55 °FPassing clouds.7 mph72%29.92 "HgN/A
9:50 PM55 °FPassing clouds.7 mph72%29.92 "HgN/A
9:20 PM57 °FPartly cloudy.8 mph67%29.92 "HgN/A
8:50 PM57 °FPassing clouds.8 mph67%29.92 "HgN/A
8:20 PM57 °FClear.7 mph67%29.92 "Hg10 mi
7:50 PM57 °FClear.7 mph67%29.95 "Hg10 mi
7:20 PM57 °FClear.8 mph67%29.95 "Hg10 mi
6:50 PM57 °FSunny.7 mph67%29.95 "Hg10 mi
6:20 PM57 °FSunny.8 mph67%29.95 "Hg10 mi
5:50 PM59 °FSunny.8 mph63%29.95 "Hg10 mi
5:20 PM59 °FSunny.8 mph68%29.95 "Hg10 mi
4:50 PM59 °FPartly sunny.10 mph68%29.95 "HgN/A
4:20 PM61 °FPartly sunny.9 mph63%29.95 "HgN/A
3:50 PM61 °FBroken clouds.12 mph63%29.95 "HgN/A
3:20 PM61 °FBroken clouds.13 mph63%29.95 "HgN/A
2:50 PM61 °FPartly sunny.13 mph59%29.95 "HgN/A
2:20 PM61 °FBroken clouds.14 mph59%29.95 "HgN/A
1:50 PM61 °FBroken clouds.14 mph63%29.98 "HgN/A
1:20 PM61 °FScattered clouds.14 mph63%29.98 "HgN/A
12:50 PM61 °FScattered clouds.15 mph63%29.98 "HgN/A
12:20 PM61 °FScattered clouds.13 mph63%29.98 "HgN/A
11:50 AM61 °FScattered clouds.14 mph68%29.98 "HgN/A
11:20 AM61 °FBroken clouds.12 mph72%29.98 "HgN/A
Weather by CustomWeather, © 2014

See weather overviewHow to use our weather pages